Theta_e
319 319 319 319 319 320 320 320 320 319 318 318 319 319 319 320 320 320 323 325 324 323 321 321 320 320 318 318 318 318 317 317 316 315 315 315 314 314 313 313 313 313 314 314 314 313 313 313 313 313 313 313 313 313 313 312 312 312 313 314 315 315 316 316 316 317 317 318 318 319 319 319 320 320 320 320 321 321 321 322 322 323 324 324 324 325 325
320 319 319 319 318 319 319 320 320 319 318 318 319 319 319 319 319 319 321 322 322 321 321 320 321 320 319 319 318 318 317 316 316 315 315 314 314 313 313 312 313 312 313 313 313 313 313 313 313 312 312 312 312 312 312 312 311 312 312 313 313 313 314 314 314 315 315 316 317 317 318 318 318 318 318 319 319 320 320 321 321 322 322 322 323 323 324
320 320 319 318 319 319 320 320 319 318 317 317 318 318 318 319 319 319 319 319 320 321 321 320 320 320 319 319 319 318 317 317 316 315 314 314 313 313 312 312 312 312 312 313 312 312 313 312 312 312 312 311 312 311 311 310 311 311 312 312 312 312 312 312 312 313 313 314 315 316 316 317 317 317 317 318 318 318 318 319 319 319 319 320 321 321 322
320 319 318 318 319 319 320 320 319 317 316 317 317 317 317 318 319 319 319 319 320 321 320 319 319 318 318 318 318 317 317 316 315 315 314 313 313 312 312 312 312 312 312 312 312 312 312 312 311 312 311 311 311 311 310 310 310 311 312 311 311 311 311 311 311 311 312 313 314 314 315 316 316 316 316 317 317 316 316 316 317 317 317 318 318 319 320
318 318 318 318 319 320 321 320 317 316 316 317 317 317 316 317 318 318 317 319 320 319 318 318 318 317 317 317 317 317 316 315 315 314 313 313 312 312 312 312 312 311 312 312 311 311 311 311 311 311 311 311 311 311 310 310 310 310 311 311 310 310 310 311 310 311 312 313 313 314 314 315 315 315 316 316 315 315 315 315 315 315 315 315 316 317 317
318 318 317 317 319 320 320 318 315 315 316 316 316 317 317 317 317 317 317 318 319 318 317 317 317 317 317 316 316 316 316 315 315 314 313 312 312 312 311 311 312 312 311 311 311 311 311 310 311 311 310 310 311 311 310 309 309 309 310 310 310 309 309 310 310 310 311 312 313 313 313 314 314 315 315 314 314 313 313 313 313 313 313 313 314 314 314
316 316 316 317 318 319 318 317 316 315 315 316 316 316 316 316 317 317 316 316 317 316 316 316 317 316 316 315 315 315 315 315 315 314 313 313 312 312 312 312 312 312 311 311 311 311 310 310 310 310 310 310 310 311 311 310 309 309 309 310 309 308 309 309 309 310 311 312 312 312 312 313 314 314 313 313 312 312 312 312 311 311 311 311 312 312 312
316 316 315 316 317 318 318 317 316 315 315 316 316 316 315 315 316 317 316 316 315 314 314 316 316 316 315 315 315 315 314 314 314 315 314 313 312 312 312 313 312 312 311 311 311 310 310 310 310 310 310 310 310 310 311 310 309 310 309 309 309 308 308 308 309 310 310 311 312 312 312 313 313 312 312 311 311 310 310 310 310 309 310 310 310 310 311
317 316 315 315 315 317 318 318 317 317 316 316 316 316 316 315 316 316 315 315 314 314 315 316 315 314 314 314 314 314 314 314 314 314 314 314 313 312 312 312 312 311 311 311 311 310 310 310 309 309 310 309 309 310 310 309 309 310 309 308 308 308 308 308 309 310 310 311 311 311 312 312 312 311 311 310 309 309 309 309 309 309 309 309 309 310 310
317 316 315 314 314 316 318 319 317 317 316 315 316 317 316 315 315 315 314 314 314 314 314 315 315 314 313 314 314 314 313 313 313 313 313 313 313 312 312 311 311 311 311 310 310 310 310 310 309 309 309 309 309 310 309 308 309 309 308 308 307 307 307 308 309 310 310 311 311 311 311 311 310 310 310 309 309 308 308 308 308 308 308 309 309 309 310
318 317 316 315 313 315 318 319 317 316 316 315 315 316 316 316 315 314 313 313 314 313 314 315 315 314 314 315 315 314 314 314 313 313 313 312 312 311 311 311 310 311 311 310 310 310 309 309 309 309 308 308 309 310 309 308 309 308 307 307 307 307 307 307 308 309 310 311 311 311 311 310 309 309 309 309 309 308 308 308 308 308 308 308 309 309 310
318 317 317 314 312 314 318 319 317 316 315 315 317 318 317 316 315 314 312 312 312 313 314 315 314 313 314 315 315 314 315 314 314 313 313 312 312 311 311 310 310 309 309 309 308 309 309 309 309 308 308 308 309 309 309 309 309 308 306 306 306 306 306 307 308 309 310 310 310 310 310 309 309 309 309 308 308 308 308 308 308 308 308 308 309 309 310
317 317 316 315 313 316 319 318 316 315 315 315 317 318 317 316 316 315 313 312 313 313 314 314 314 314 315 316 316 315 315 314 313 312 312 312 311 311 311 310 309 309 308 308 308 308 309 309 308 308 308 309 309 309 308 309 309 307 306 306 306 306 306 307 308 309 310 310 310 310 309 309 309 309 308 308 308 308 308 308 308 308 308 308 309 309 310
316 316 316 315 316 318 319 317 316 316 314 315 317 317 317 316 316 315 314 312 313 313 313 314 315 316 316 316 315 314 314 313 313 312 311 311 310 310 310 310 309 309 309 309 308 308 308 309 309 309 309 308 309 309 308 308 308 306 305 306 306 306 306 308 308 309 310 310 310 310 309 308 309 309 308 308 308 308 308 308 308 308 308 308 309 309 309
316 316 316 315 316 319 319 317 317 316 314 315 317 316 316 316 315 315 314 313 313 314 314 314 316 316 315 314 314 314 313 312 312 312 311 310 310 310 310 310 309 309 309 308 307 308 308 309 309 309 309 309 309 309 308 307 306 305 306 306 306 306 306 308 309 309 309 310 309 309 309 309 309 309 308 308 308 308 307 307 308 308 308 308 308 309 309
316 316 316 316 317 319 318 316 316 316 315 316 316 315 315 316 315 314 314 313 314 314 314 314 315 315 314 313 313 313 313 311 312 313 311 310 310 310 310 310 309 309 309 308 307 307 309 309 308 308 309 309 309 308 307 306 305 304 306 306 306 306 307 308 309 309 310 309 308 308 308 308 309 309 308 309 309 308 307 307 307 307 308 308 308 309 309
316 316 317 318 317 318 317 317 316 316 316 317 316 315 315 315 314 313 314 314 314 314 314 315 315 314 314 313 311 312 312 312 312 313 311 310 310 310 310 310 310 309 309 308 307 307 308 309 309 308 309 309 309 308 307 305 304 304 305 305 305 306 307 308 308 308 309 308 307 308 309 308 308 309 309 308 309 308 307 307 307 307 307 307 307 308 308
317 317 317 317 317 317 317 317 317 317 317 317 317 316 315 315 314 314 315 315 314 314 314 314 314 313 313 313 312 312 312 312 312 312 311 311 310 310 310 310 310 309 309 309 308 308 308 309 309 309 309 309 308 308 306 304 303 304 304 304 305 306 307 308 308 308 308 307 305 308 309 308 308 309 308 307 308 308 307 306 306 307 307 306 306 306 307
316 316 317 316 316 317 317 317 317 318 317 316 317 316 315 315 315 315 315 314 314 314 313 313 314 313 313 314 314 312 311 312 312 312 312 311 310 310 310 310 310 310 309 309 309 308 309 309 308 309 309 308 307 306 304 303 303 303 304 304 305 305 307 308 308 307 307 307 306 308 308 308 307 308 307 305 306 308 307 306 306 306 306 306 306 306 306
316 316 316 317 317 317 317 317 317 317 316 316 316 316 315 315 315 315 315 314 314 314 313 313 313 313 313 313 313 312 311 312 312 312 311 311 311 310 310 310 310 310 310 310 310 309 309 309 308 308 308 308 307 306 304 303 303 303 303 303 304 305 307 309 308 306 305 306 307 307 307 308 308 307 306 304 304 306 307 305 304 305 306 306 306 305 305
317 317 316 317 317 317 317 316 316 316 316 316 316 316 315 315 315 315 314 314 314 314 314 313 313 313 313 313 313 312 312 312 312 312 311 311 311 311 311 310 310 310 311 311 310 310 309 309 309 308 308 308 307 306 305 304 303 302 303 303 304 305 307 308 308 304 302 305 308 307 307 308 307 306 306 305 303 305 306 304 302 303 304 305 305 305 305
317 316 317 317 317 316 317 317 317 318 317 316 316 316 315 315 314 314 314 314 314 313 313 313 313 313 313 313 313 313 313 312 312 312 311 311 311 311 311 311 311 311 311 311 311 310 310 309 309 309 308 308 307 306 305 304 303 302 303 303 303 305 307 308 307 304 303 305 307 306 306 307 306 306 306 305 304 304 304 303 302 302 302 303 303 302 303
317 316 319 320 319 317 318 318 318 318 317 316 315 315 315 316 315 315 315 314 314 313 313 313 313 313 313 313 313 313 313 313 312 312 312 311 311 311 311 311 311 311 312 311 311 311 310 310 310 309 308 308 307 306 305 305 304 303 303 302 303 304 305 307 306 305 304 304 305 305 305 306 305 305 305 305 305 305 304 303 302 302 302 302 301 301 301
318 317 319 321 319 318 318 318 317 317 317 316 316 315 315 316 316 315 315 315 315 314 313 313 313 313 313 313 313 313 313 313 312 312 311 311 311 311 311 311 311 312 311 311 311 311 311 310 310 309 309 308 307 307 306 305 304 303 303 303 303 303 303 304 305 305 305 305 305 305 305 305 305 305 304 304 305 305 304 303 303 302 303 303 302 302 301
318 317 318 319 319 318 318 317 317 317 317 316 316 315 315 315 316 315 315 315 315 314 313 313 313 313 312 313 313 313 313 312 312 312 311 311 311 311 311 311 311 311 311 311 312 311 311 311 310 309 309 308 308 307 306 306 305 304 304 303 303 302 303 303 304 304 304 304 305 306 305 305 305 304 304 303 304 304 304 303 303 303 303 303 303 302 302
317 317 317 317 317 318 317 316 317 317 317 317 317 316 316 315 316 316 315 314 315 314 314 314 313 313 313 313 313 313 313 312 312 312 312 312 312 311 311 311 311 311 311 311 311 311 311 311 311 310 309 309 308 308 307 306 305 305 304 304 303 303 302 301 301 300 301 302 304 306 306 305 304 304 303 303 303 303 303 303 303 303 303 303 303 303 303
317 317 317 316 316 316 316 316 317 317 318 318 318 316 316 315 315 315 314 314 314 314 314 314 314 313 313 313 313 313 313 312 312 312 312 312 312 312 312 311 311 311 311 311 311 311 311 311 311 310 310 309 309 308 307 306 306 305 305 304 304 304 303 301 300 300 301 303 305 306 306 305 305 304 302 302 302 303 303 303 303 303 303 303 303 303 303
316 316 316 316 316 316 316 316 317 317 317 317 317 316 315 315 315 315 314 314 314 314 314 314 314 314 314 313 312 313 313 312 312 312 312 312 312 312 312 312 312 312 312 312 312 312 311 311 311 311 310 309 309 308 308 307 306 305 305 305 304 304 303 302 302 302 303 305 306 306 306 305 304 303 302 302 303 304 304 303 303 303 304 303 303 303 304
315 315 316 316 316 316 316 316 317 317 316 316 316 315 315 315 315 315 315 314 314 315 315 314 314 314 314 313 313 313 313 313 313 313 313 313 313 313 313 313 313 312 313 313 313 312 312 311 311 311 310 310 309 308 308 307 306 306 305 305 304 304 304 303 302 303 303 304 304 304 304 304 303 303 303 304 305 305 304 304 304 304 304 304 304 304 304
316 315 315 315 315 315 315 315 317 317 316 315 315 315 315 315 315 315 315 315 315 315 315 315 315 315 315 314 314 313 314 314 314 313 313 313 313 313 313 313 313 313 313 313 313 312 312 312 311 311 310 310 310 309 308 307 306 306 305 305 305 304 304 302 301 300 300 300 301 302 303 303 304 304 305 305 305 304 304 304 304 304 304 304 304 304 304
316 316 316 315 314 314 314 315 315 316 315 315 315 315 315 315 315 315 315 315 316 316 315 315 316 316 315 315 315 314 314 314 314 314 313 313 313 313 313 313 314 314 314 313 313 313 312 312 312 311 310 310 310 310 309 307 306 306 306 305 305 304 304 303 301 300 299 298 298 299 300 302 303 304 305 305 305 305 305 305 305 305 305 305 305 305 304
316 317 317 317 315 314 314 314 314 314 314 315 316 316 315 315 315 315 316 316 317 316 316 316 316 316 316 315 315 315 315 315 314 314 314 314 314 314 314 314 313 313 313 313 313 313 312 312 312 311 310 310 310 309 308 307 307 306 306 305 305 305 304 304 303 302 300 299 298 299 300 301 303 304 305 305 305 305 305 305 305 305 305 305 305 305 304
316 315 316 316 316 315 314 314 314 313 313 314 315 316 316 315 315 315 316 317 317 317 317 317 316 316 316 315 315 315 315 315 315 315 315 314 314 314 313 313 313 313 313 313 313 313 312 312 311 311 310 310 310 309 308 307 307 306 306 305 305 304 304 304 303 302 301 300 300 301 301 302 303 304 305 305 305 305 305 305 305 305 305 305 305 304 304
315 315 316 316 316 315 314 314 313 313 313 313 314 314 315 315 315 315 316 316 317 317 317 316 316 316 316 316 316 315 316 316 316 316 315 315 314 314 313 313 313 313 313 313 312 312 312 312 311 311 311 310 310 309 308 307 307 306 306 305 305 304 304 304 303 302 302 302 302 302 302 302 303 304 304 304 305 305 305 305 305 305 305 305 304 304 305
316 315 315 315 314 314 314 313 313 314 313 313 313 313 314 315 315 315 316 317 317 317 316 316 316 316 316 317 317 316 316 317 317 316 316 315 314 313 313 313 313 313 313 312 312 312 312 312 311 311 311 310 310 309 308 308 307 307 306 305 305 304 304 304 303 303 303 303 304 304 304 304 304 304 304 304 305 305 304 304 305 305 305 305 305 305 305
315 315 315 315 314 314 313 313 314 314 314 314 314 314 314 314 314 315 316 316 316 316 315 315 316 316 316 317 317 317 316 316 316 316 316 315 313 313 313 314 314 313 313 312 312 311 311 311 311 311 310 310 310 309 309 308 307 307 306 305 305 304 304 304 304 304 304 305 305 305 305 305 305 304 304 304 304 304 304 304 304 305 305 305 305 305 305
316 315 315 315 315 315 314 313 314 315 315 315 315 315 315 315 314 313 315 315 315 315 315 315 316 316 317 317 317 317 316 316 316 316 315 314 313 313 314 314 314 313 312 312 312 311 311 311 311 310 310 309 309 309 309 308 308 307 306 305 305 304 304 304 305 305 305 305 305 305 305 305 305 305 305 305 305 305 305 305 305 306 306 306 306 305 305
316 316 316 315 315 316 315 314 314 314 314 314 315 315 315 315 314 313 314 314 315 315 315 315 315 316 316 316 316 316 316 316 316 316 315 314 313 313 313 313 313 312 312 312 311 311 311 311 310 310 309 309 308 308 308 307 307 307 306 305 305 305 305 305 305 305 306 306 306 306 306 306 305 306 306 306 306 306 306 306 306 306 306 306 305 305 305
316 316 316 316 315 316 315 315 314 314 314 314 315 315 315 315 315 315 315 315 315 316 315 315 315 315 316 316 316 316 316 316 316 315 314 314 313 312 312 312 312 312 312 311 311 311 311 311 310 310 310 309 308 307 307 306 306 306 305 305 305 305 305 305 305 305 305 305 305 305 305 305 306 306 306 306 306 306 306 306 306 306 306 305 305 305 305
315 315 316 316 316 316 315 315 315 314 314 313 314 314 315 315 316 316 316 316 316 316 316 316 316 316 316 316 316 316 316 316 316 315 314 313 313 312 312 312 312 311 312 312 311 311 311 310 310 310 310 309 308 307 307 306 305 305 304 304 304 304 305 305 305 305 305 305 305 306 306 306 306 307 307 307 307 307 306 306 306 306 305 305 305 304 304
316 316 315 315 315 315 315 315 315 314 314 313 313 314 315 315 316 316 316 316 316 316 316 316 316 316 316 316 315 316 316 315 315 314 313 313 313 312 312 312 312 312 311 311 311 311 310 310 310 310 310 309 308 308 307 307 306 305 304 304 304 305 305 305 306 306 306 306 306 307 307 307 307 307 307 307 306 306 306 306 305 305 304 304 304 304 303
315 315 315 315 315 315 315 315 315 315 314 314 314 314 315 315 315 316 316 316 316 316 316 316 316 316 316 316 315 315 316 315 314 313 313 313 312 312 312 312 312 311 311 311 311 311 311 310 310 310 310 309 309 309 309 308 307 305 305 305 306 306 307 307 307 307 307 307 307 307 307 307 307 307 306 306 306 305 305 305 304 304 303 303 303 303 302
315 315 315 315 315 315 315 315 315 315 315 314 314 315 315 315 316 316 316 316 316 315 315 316 316 316 316 316 315 315 315 315 314 313 313 312 312 312 312 312 312 312 311 311 311 311 311 310 310 310 310 309 309 309 309 308 307 306 306 307 308 307 307 307 307 307 307 307 307 307 307 306 306 306 306 306 305 304 303 303 302 302 302 302 302 302 302
316 316 315 315 316 316 316 315 315 314 315 315 315 315 315 315 316 317 316 316 316 315 316 316 316 315 315 315 315 315 315 314 314 313 313 313 312 312 312 312 313 312 312 311 311 311 311 311 311 310 310 309 309 308 308 308 307 307 307 307 307 307 307 307 307 307 307 307 307 306 306 306 306 305 305 303 302 302 301 302 301 301 301 301 301 301 301
316 316 316 316 316 316 316 315 315 314 315 315 315 315 315 316 317 316 315 315 316 315 315 315 315 315 314 314 314 314 314 314 313 313 312 313 313 313 313 313 313 312 311 311 311 311 311 311 310 310 309 308 308 308 308 307 307 307 306 306 307 307 307 307 307 307 307 306 306 305 305 304 303 303 302 301 301 301 301 301 300 300 300 300 300 299 299
316 317 316 316 317 316 316 315 315 315 315 315 316 316 316 316 316 316 315 315 316 315 315 315 315 314 314 314 314 314 313 313 312 313 313 313 313 314 314 313 312 311 311 311 311 310 310 310 309 309 308 308 308 307 307 306 306 306 307 307 307 307 307 307 306 306 305 304 303 303 302 301 301 300 300 300 300 300 299 299 299 299 299 299 299 299 298
316 317 316 316 316 316 316 315 315 315 316 316 316 316 316 316 316 316 315 315 315 315 314 314 314 314 314 314 313 313 313 313 313 313 312 312 313 314 314 313 312 311 311 310 310 309 309 309 307 307 307 307 306 306 306 306 307 307 307 307 306 306 305 304 304 303 303 302 301 300 300 300 300 299 299 299 298 299 299 298 298 298 298 298 298 298 297
316 316 316 316 316 316 316 316 315 315 316 316 316 316 316 315 315 315 315 315 315 314 314 314 314 313 313 313 313 313 313 313 313 313 313 313 313 313 312 312 312 311 310 309 309 308 308 307 306 306 305 304 304 304 306 307 307 306 306 305 304 304 303 302 302 301 301 300 299 299 299 299 298 298 298 298 298 298 298 298 298 297 297 297 297 296 296
316 316 316 316 316 316 316 316 316 316 315 315 315 316 315 315 315 315 315 315 315 314 314 313 313 313 313 313 313 313 313 313 313 313 313 313 312 311 311 311 311 309 308 308 308 307 306 305 305 304 303 303 304 305 306 306 305 304 303 303 302 301 301 301 300 299 299 299 299 298 298 297 297 297 297 298 298 297 297 297 296 296 296 296 296 296 296
316 316 316 316 316 316 316 316 315 315 315 315 315 315 315 315 315 315 314 314 314 314 314 314 313 313 313 313 313 313 313 313 313 313 313 312 312 311 310 309 309 308 307 307 307 305 304 304 302 302 302 303 305 306 305 303 302 301 301 301 301 300 300 299 299 298 298 298 298 297 296 296 296 297 297 296 296 296 295 295 295 295 294 294 294 294 294
316 315 315 315 315 316 316 315 315 315 315 315 314 315 315 315 315 314 314 314 314 314 314 314 314 314 314 313 313 313 313 313 313 312 312 312 311 310 309 308 307 306 306 306 304 303 302 301 301 301 303 304 305 303 302 301 300 300 300 300 300 299 298 297 297 297 297 296 296 295 295 295 295 295 295 294 294 294 293 293 293 293 293 292 292 292 293
315 315 315 315 315 315 316 315 315 315 315 315 315 315 314 314 314 314 314 314 314 314 314 314 314 314 314 313 313 313 313 313 313 312 312 311 310 309 308 307 306 306 305 304 302 302 301 301 301 301 303 303 302 301 300 299 299 299 299 299 298 297 296 296 296 296 295 295 294 294 294 293 293 293 293 292 291 291 291 291 291 291 291 291 291 291 291
Wind_Speed
6 6 6 3 3 4 4 4 4 4 5 5 4 6 5 3 5 4 3 6 4 5 6 7 9 9 9 9 9 10 9 8 8 8 7 8 8 8 6 5 5 6 4 4 4 1 2 2 1 2 4 4 5 6 5 6 7 6 7 7 6 7 7 6 6 6 6 6 5 6 5 5 5 5 5 6 6 7 8 8 7 7 7 8 9 8 9
7 7 6 5 5 5 5 5 4 4 5 5 5 6 6 5 6 6 4 3 2 3 4 5 6 7 8 8 7 9 9 8 8 7 6 8 9 7 6 5 4 6 4 4 4 4 4 3 1 2 4 4 5 6 5 5 6 6 7 6 6 7 7 7 7 7 7 6 6 7 6 5 5 6 6 6 6 6 7 7 8 8 9 9 9 9 9
8 7 6 6 6 6 6 5 4 4 4 4 4 4 4 5 6 4 5 5 2 6 7 6 7 8 9 9 8 9 9 8 7 6 6 7 6 5 7 5 4 5 5 4 0 3 6 5 1 2 4 3 4 5 5 5 6 6 6 6 7 7 7 7 8 7 7 7 6 7 7 6 6 6 6 6 6 7 8 8 8 9 10 9 10 10 10
7 5 5 7 6 6 7 6 4 3 2 2 3 2 1 3 5 4 4 2 3 6 7 7 8 8 9 9 9 8 7 7 7 6 6 5 4 4 6 6 4 3 5 6 1 3 4 5 2 3 4 3 4 5 4 5 5 5 5 6 7 7 7 7 8 7 7 7 7 7 7 7 7 7 7 7 8 9 9 9 9 10 10 10 10 10 10
6 4 3 6 6 5 5 3 1 1 1 2 3 2 1 1 2 4 3 2 5 5 4 6 7 8 8 7 7 7 7 6 6 6 6 5 5 4 4 5 5 4 4 6 4 0 3 2 1 3 5 3 3 3 3 4 4 5 4 5 6 7 7 7 8 8 7 7 7 7 7 8 8 8 9 9 10 11 11 11 11 11 11 11 11 11 11
6 5 4 5 6 4 1 3 2 1 2 2 4 4 3 1 2 2 3 1 4 4 4 5 7 7 6 5 5 6 6 5 5 6 5 5 5 5 4 3 4 5 4 3 3 3 2 1 1 4 7 4 2 2 2 3 3 5 4 4 6 7 7 8 8 8 8 7 7 8 8 8 8 9 10 11 11 12 12 12 12 12 12 13 12 12 12
6 6 5 5 4 2 1 4 2 1 2 3 5 5 6 5 4 3 3 3 3 3 3 4 7 5 4 3 4 5 6 6 6 5 5 5 5 5 5 4 3 4 6 5 4 3 1 2 1 3 7 4 4 2 2 3 3 4 5 4 6 6 6 7 7 7 8 8 8 9 9 8 8 9 10 11 11 11 12 12 12 13 13 13 13 13 13
5 5 5 4 2 2 5 4 3 1 1 2 4 6 7 4 3 3 3 3 3 2 2 6 8 5 4 3 5 6 7 7 6 5 4 5 4 4 4 3 3 3 3 3 5 4 2 3 1 4 7 4 5 3 3 3 4 3 4 4 5 5 5 6 7 7 7 8 8 9 9 9 9 10 11 11 11 12 11 11 12 12 12 12 13 13 13
5 5 6 5 3 3 6 4 2 1 0 1 2 5 6 2 2 3 2 3 3 2 6 8 7 5 3 4 6 7 8 7 7 7 6 6 5 4 2 3 3 3 1 1 2 2 1 5 3 3 8 4 4 4 3 4 4 3 4 5 5 5 6 6 6 6 7 8 8 8 9 9 10 11 11 11 12 12 11 11 11 12 11 12 12 12 13
4 5 6 5 5 3 4 6 4 3 2 2 3 5 5 2 3 2 0 2 3 2 5 8 8 4 3 6 5 7 8 8 7 7 7 7 6 5 4 4 5 6 6 4 2 3 3 3 6 2 5 4 3 3 3 4 5 4 4 5 5 6 6 6 6 6 6 7 7 8 8 9 10 10 10 11 11 11 11 11 11 11 11 12 12 12 13
5 6 6 5 5 2 5 9 6 4 3 0 2 4 2 1 4 5 1 2 3 4 4 7 7 2 3 1 4 7 8 8 6 6 7 7 6 6 7 8 7 8 10 8 5 6 7 4 6 3 3 2 2 2 3 3 4 4 5 5 6 6 6 6 6 6 5 6 7 7 7 8 9 9 10 10 11 11 11 11 11 11 11 12 12 12 12
5 6 6 5 5 1 8 10 6 4 4 1 4 3 1 2 3 4 1 2 3 4 3 8 5 5 2 4 7 8 8 7 5 4 6 8 9 10 8 6 6 7 8 10 7 5 6 6 5 2 2 1 3 1 3 3 2 3 4 4 5 6 5 5 5 5 5 6 7 6 6 7 8 8 9 10 10 10 10 10 10 11 12 12 12 12 12
7 7 6 6 5 2 8 8 6 5 3 3 4 1 3 2 3 3 1 2 3 4 4 6 2 2 4 7 7 8 8 9 7 6 8 10 9 7 9 8 4 3 1 3 2 1 1 4 2 1 2 0 3 2 4 3 3 3 3 4 4 5 5 5 5 6 5 5 6 5 6 6 6 7 8 9 9 10 10 10 10 11 11 12 12 12 12
6 6 6 6 4 2 5 6 7 5 2 2 0 2 2 1 2 1 1 2 3 4 4 6 4 5 8 8 7 8 7 7 8 7 8 6 3 7 10 7 3 2 2 3 2 1 3 4 3 2 2 1 2 3 4 4 3 4 4 4 4 4 5 5 5 5 4 4 4 4 5 6 6 6 7 7 8 9 10 10 11 11 11 11 11 12 12
6 6 7 7 3 2 6 6 6 4 3 1 2 3 3 2 2 3 1 1 2 3 5 7 9 9 9 6 5 7 7 5 6 8 9 6 4 5 5 4 7 6 1 2 2 0 3 3 1 3 2 2 2 3 4 4 4 4 3 4 4 5 5 5 4 4 3 4 4 4 5 5 5 5 6 7 6 8 9 10 11 11 11 10 10 10 11
6 5 4 2 0 4 7 6 2 2 1 2 2 0 1 1 2 3 3 4 4 4 5 7 9 9 9 6 4 5 5 4 4 7 8 6 5 5 3 8 14 8 2 2 2 1 2 2 2 2 1 0 1 2 3 3 4 4 3 3 4 5 5 4 4 4 4 4 4 4 4 5 5 5 6 6 6 7 8 9 11 11 11 12 12 11 12
5 4 1 1 3 5 5 3 2 1 1 1 1 2 2 1 1 2 1 3 5 3 4 5 7 8 6 5 4 4 4 5 3 3 5 4 4 5 5 9 10 2 3 5 3 2 2 1 2 1 0 1 2 2 2 2 3 3 3 3 4 4 5 4 4 5 4 5 5 4 4 5 4 3 5 7 7 7 8 9 10 10 10 12 12 12 12
6 7 5 5 4 6 7 5 4 2 2 2 2 2 3 2 2 4 3 3 4 3 3 4 4 5 4 5 7 4 4 5 4 4 5 6 6 6 6 5 4 2 4 6 5 3 3 2 3 3 2 0 1 1 1 2 3 2 3 3 3 3 4 4 4 4 4 5 5 3 2 4 5 4 6 8 7 7 8 9 10 10 10 10 10 10 11
6 6 5 5 5 5 6 6 7 7 6 4 3 4 4 4 2 4 5 2 2 4 4 5 4 4 4 4 7 6 3 3 4 6 7 7 7 6 5 3 2 2 2 2 5 6 5 2 3 4 2 1 0 2 3 3 3 3 3 3 2 3 3 3 3 3 3 4 5 4 2 4 5 4 7 8 8 7 8 8 9 10 9 9 9 10 10
6 6 5 3 4 4 4 5 6 7 8 8 6 6 5 3 2 1 5 3 2 4 5 5 5 3 6 5 5 6 5 5 5 6 6 6 5 5 3 1 1 2 5 5 3 1 1 3 5 5 3 2 1 2 2 2 2 3 3 3 3 3 3 3 2 3 4 4 4 4 3 4 4 3 5 6 7 6 5 6 7 6 7 8 8 8 8
6 8 9 8 7 8 8 9 8 6 5 5 4 5 6 5 4 3 6 5 3 3 7 6 4 5 5 6 5 5 6 6 6 5 4 5 5 5 5 4 4 4 4 4 5 5 4 4 4 3 5 5 3 1 0 0 2 2 2 2 3 3 4 4 1 3 5 6 4 4 4 4 4 3 1 3 5 3 2 5 8 6 4 4 4 5 6
7 7 6 6 6 6 4 6 8 7 4 3 2 4 5 8 8 6 6 6 3 2 5 7 7 6 4 4 5 6 5 5 6 7 7 7 7 7 6 6 6 6 5 4 4 5 5 6 7 4 2 5 5 2 1 1 2 2 2 2 3 4 3 2 1 4 5 6 5 4 5 5 5 4 4 5 5 3 3 5 9 8 5 4 3 4 5
7 5 2 1 4 5 2 3 4 5 4 5 4 4 5 6 7 6 7 8 7 4 5 8 8 5 6 6 7 6 5 7 8 8 8 8 8 8 8 8 8 8 7 7 7 6 5 6 8 7 7 4 5 5 2 1 2 1 3 3 4 4 3 2 4 5 5 5 5 5 5 5 6 6 6 5 5 5 4 6 8 8 7 6 5 5 5
7 4 4 3 3 4 2 2 2 4 4 5 6 4 4 6 7 7 8 8 7 6 7 8 7 3 5 8 9 6 6 8 9 8 9 8 8 8 9 9 9 8 8 8 8 7 6 7 8 7 8 7 4 7 4 2 2 1 2 3 4 5 5 4 4 4 4 4 5 5 5 5 6 7 7 6 5 5 5 8 10 10 10 8 7 6 6
8 7 6 4 4 5 4 2 2 3 4 4 3 4 5 6 6 8 8 7 7 8 8 7 7 7 7 9 9 8 7 8 9 9 9 9 9 8 9 10 11 11 11 10 9 8 7 7 8 8 8 8 5 5 6 4 3 2 1 3 4 4 5 5 5 5 5 5 5 5 5 5 6 6 7 8 7 6 7 10 11 11 11 11 11 10 9
9 8 8 8 8 7 7 7 6 7 8 6 3 3 5 4 3 7 10 9 9 10 9 7 8 10 10 9 9 9 8 9 10 11 11 11 12 12 12 12 11 11 11 11 10 10 9 9 9 9 9 9 8 5 5 6 5 3 2 3 4 5 4 4 5 5 6 6 6 5 4 5 6 6 6 7 7 8 9 9 9 10 11 12 11 10 11
10 9 9 9 10 9 9 9 7 6 8 9 7 7 8 6 4 6 9 9 10 11 12 11 10 10 10 10 9 10 10 10 11 11 12 12 13 14 14 15 15 15 14 12 12 12 11 11 10 10 10 9 8 8 8 8 8 5 4 4 5 6 6 6 5 4 6 6 6 5 5 4 5 6 6 7 7 8 9 9 9 10 11 10 9 10 11
9 8 8 9 9 9 10 10 9 7 6 7 8 9 11 10 7 7 8 9 10 10 11 12 13 12 11 11 10 11 12 12 12 12 13 14 14 13 14 16 17 17 16 13 12 12 12 12 10 9 10 10 8 9 10 8 9 8 6 5 6 7 7 7 7 6 6 6 6 5 4 4 4 5 6 7 9 9 9 9 9 10 10 10 11 11 13
9 8 8 9 10 9 9 9 9 9 9 10 10 10 11 10 9 8 9 10 9 9 9 10 12 13 13 14 13 11 11 12 13 14 15 15 14 13 14 16 16 17 16 14 13 13 13 12 11 11 10 10 9 10 11 9 10 8 6 7 7 7 6 5 6 6 5 5 5 5 6 6 6 7 8 9 10 9 9 9 10 10 11 12 12 11 12
11 9 9 9 10 10 10 10 9 10 11 12 11 10 11 11 10 10 10 10 9 8 9 10 10 11 12 15 16 15 14 13 14 16 15 15 15 15 15 15 14 14 14 14 14 14 13 13 13 12 10 10 11 12 13 11 10 8 7 8 8 8 7 5 4 4 5 6 6 7 7 8 8 9 10 10 9 9 9 10 11 12 12 12 11 11 12
13 12 11 11 11 11 12 11 10 10 11 11 12 12 12 13 12 11 11 10 8 7 10 11 11 11 11 12 15 18 18 16 15 14 15 15 16 15 14 14 13 12 12 13 15 16 15 14 14 12 10 11 14 15 15 13 11 8 8 9 9 11 12 10 8 7 7 7 7 7 8 8 9 9 10 10 10 10 11 11 12 12 12 12 12 13 13
14 13 13 13 12 12 12 11 11 11 12 11 11 12 12 12 11 10 9 9 9 10 11 11 11 12 14 14 15 16 16 15 14 13 13 13 12 11 11 12 12 11 11 11 12 14 15 14 13 11 10 12 16 15 13 14 12 8 7 9 10 12 14 14 13 10 8 7 8 8 8 9 9 10 10 11 11 11 11 12 12 12 12 13 14 14 15
13 13 13 13 12 12 13 12 11 12 12 12 11 11 11 11 10 9 9 9 10 11 10 11 13 15 17 17 16 15 14 13 13 13 11 10 9 9 9 8 7 8 10 10 9 11 14 14 12 10 11 15 18 14 10 12 11 8 8 10 10 11 12 13 13 10 8 9 9 9 10 11 11 11 12 12 12 12 12 12 13 14 14 15 16 17 17
12 11 11 11 11 11 12 12 11 11 11 11 11 11 11 11 11 11 12 11 10 10 10 12 15 17 18 17 17 16 14 11 8 9 11 12 12 11 10 9 6 7 9 10 11 11 13 14 14 12 12 14 15 12 11 11 10 9 10 10 10 9 10 12 13 13 12 11 11 12 13 14 15 15 14 13 13 13 13 13 14 15 16 17 17 18 19
12 12 12 12 12 12 12 12 11 11 11 11 11 11 11 11 12 13 12 11 10 12 13 15 15 16 15 15 16 16 15 11 8 9 12 14 14 12 10 10 10 8 9 11 12 12 12 15 17 16 15 16 15 11 12 11 10 9 10 11 11 10 10 12 14 15 15 14 13 13 13 14 14 14 14 13 14 14 15 16 17 17 18 18 19 20 21
14 13 12 12 12 13 13 11 10 11 10 10 10 9 10 12 14 14 13 13 15 16 16 16 15 13 13 13 13 14 15 13 11 11 10 10 13 14 12 11 11 10 10 12 12 10 9 11 12 12 11 12 12 8 7 8 9 10 11 12 11 11 12 12 13 14 14 14 14 14 14 15 16 17 18 18 19 19 20 21 20 20 19 20 20 20 19
16 15 13 11 11 12 13 12 12 12 12 11 10 10 10 12 15 16 17 17 18 17 15 14 13 11 12 13 14 15 15 15 13 12 11 10 12 16 16 14 12 11 10 10 12 13 13 12 11 10 8 7 7 6 7 10 12 12 12 12 12 12 13 13 13 14 14 15 15 16 16 16 17 17 17 18 18 17 17 17 17 17 17 18 18 18 19
15 16 15 14 13 13 14 15 16 15 14 12 12 12 13 14 15 17 18 19 18 18 17 16 14 12 12 13 14 15 15 15 14 14 14 13 12 13 14 13 12 11 11 11 12 15 17 17 16 14 11 9 9 10 11 12 14 13 12 13 13 14 14 14 14 14 14 14 14 14 14 14 14 15 15 15 16 17 17 17 18 18 18 17 18 18 19
13 14 14 15 14 14 14 16 17 17 15 13 11 12 13 14 13 14 15 16 16 16 15 15 14 13 13 12 12 13 14 16 17 17 17 14 13 13 13 12 12 12 13 13 12 12 14 18 18 16 14 11 11 12 13 14 15 15 15 14 14 14 14 14 14 13 13 13 14 15 15 15 16 16 16 16 17 17 18 18 19 18 17 16 17 18 18
11 11 11 12 12 12 12 13 15 17 17 16 14 13 14 14 13 12 11 12 14 14 14 14 13 12 13 13 12 12 14 16 18 18 17 14 13 13 11 11 14 15 14 12 11 11 13 16 17 16 13 12 12 13 14 16 17 18 18 17 16 15 15 14 14 13 14 15 15 15 15 15 16 16 17 17 17 16 16 17 17 17 17 17 17 17 17
10 10 10 10 10 11 11 12 13 15 17 18 16 15 15 15 14 13 13 12 13 13 14 14 14 13 14 15 13 13 14 15 17 18 16 14 13 11 8 9 14 17 15 13 14 15 15 16 16 14 13 13 15 17 18 20 22 22 20 18 17 16 14 13 14 14 15 15 15 14 15 16 16 16 15 14 14 14 15 15 16 17 17 17 17 17 17
10 11 11 10 10 10 12 13 13 13 15 17 17 16 16 15 14 13 13 13 13 13 13 14 15 15 15 15 14 14 15 15 16 17 16 14 12 11 9 10 14 18 17 16 16 18 18 18 17 16 13 12 13 17 19 20 23 24 21 17 15 14 13 12 13 14 14 14 14 15 16 15 14 14 13 13 13 13 14 14 15 16 16 16 16 17 17
11 11 10 10 9 10 12 13 13 12 13 15 17 17 17 15 14 12 12 12 12 12 12 13 13 13 14 14 14 13 14 15 15 16 15 15 15 15 13 12 14 17 17 18 20 22 21 20 19 17 16 14 13 12 13 15 18 20 17 14 12 12 11 12 13 14 14 14 14 14 14 13 12 12 12 11 11 12 13 14 15 15 15 16 16 17 18
11 10 9 10 11 12 12 13 13 12 12 14 17 17 16 14 14 13 13 13 13 13 13 14 14 15 15 14 12 11 12 13 14 13 12 11 14 16 16 15 14 14 16 18 20 20 19 19 19 19 20 20 17 14 12 13 15 14 12 11 10 10 11 12 14 14 14 12 11 11 11 11 10 9 10 10 12 13 14 14 14 14 15 15 16 16 17
11 11 12 11 12 12 12 12 13 13 14 15 16 16 15 14 14 14 14 14 14 14 14 13 13 13 13 12 11 11 12 12 13 13 11 8 8 12 17 18 17 16 17 18 18 15 14 15 18 20 20 20 18 15 13 12 11 10 9 9 10 10 11 11 11 10 10 10 9 8 8 7 7 8 10 11 12 13 13 13 13 14 14 14 15 16 16
11 13 14 13 12 13 14 15 16 17 16 15 13 13 14 14 14 14 15 14 14 14 14 13 12 12 13 13 13 13 13 13 13 15 13 9 6 9 15 18 20 22 21 17 13 11 12 14 15 15 15 15 14 13 11 9 8 8 9 9 9 9 8 7 7 7 7 7 6 5 5 7 8 9 10 11 11 12 12 13 13 13 13 14 15 15 16
11 12 14 14 14 14 16 17 17 16 14 11 9 10 13 15 15 14 13 13 14 14 14 15 14 14 15 16 15 14 13 12 10 10 12 11 10 12 17 19 19 21 21 16 11 11 14 14 13 12 12 11 11 10 9 9 10 10 9 7 6 4 3 4 4 4 4 4 5 6 7 8 8 8 10 11 11 11 12 12 12 12 13 13 14 16 17
11 11 12 15 16 16 16 15 13 11 10 11 11 12 14 16 15 14 14 14 14 14 13 14 14 14 15 16 17 17 15 12 8 8 13 17 17 18 20 21 19 18 19 18 15 15 15 14 13 12 12 11 10 10 9 9 8 7 5 3 2 1 2 1 1 1 2 5 6 6 6 6 7 8 10 10 10 10 11 12 12 12 13 13 15 16 17
12 12 13 15 16 15 14 12 9 8 11 14 15 16 18 18 15 14 15 15 15 14 13 13 15 15 15 15 16 16 16 15 12 10 14 19 20 19 20 21 19 18 20 21 19 17 16 15 14 14 13 12 10 9 7 7 6 5 4 3 1 0 1 2 1 1 3 4 3 3 4 5 7 8 9 8 9 9 10 11 11 12 12 13 14 14 15
12 12 11 11 12 13 13 11 9 10 13 16 15 15 19 18 13 12 14 15 14 14 14 14 15 15 15 15 15 15 16 17 17 14 14 19 22 21 20 20 20 20 21 21 21 20 19 17 16 15 14 11 9 7 7 8 7 5 3 3 2 2 3 3 2 0 1 2 2 3 5 5 5 5 6 7 8 9 9 10 11 12 13 13 13 14 15
11 10 10 12 14 14 15 15 15 14 15 15 13 13 15 14 11 12 15 17 16 14 14 14 14 15 15 16 17 17 17 17 17 17 15 19 23 23 22 22 23 23 22 22 23 23 20 18 17 16 14 11 10 10 10 9 7 5 4 5 5 5 5 5 5 4 4 3 2 3 4 4 4 4 6 8 8 8 9 10 11 11 12 13 13 14 15
13 13 13 15 16 15 16 17 17 15 14 13 13 12 14 14 13 12 14 17 18 16 14 13 13 14 14 14 15 15 15 15 17 17 15 19 24 25 24 24 25 23 22 21 22 21 20 18 18 16 13 11 12 12 11 9 7 7 8 9 7 6 6 7 7 5 3 1 1 1 1 3 4 4 5 7 7 7 8 9 10 10 11 12 12 12 13
Wind_Direction
293 298 298 296 281 292 304 291 293 301 288 283 274 276 283 267 279 299 164 165 200 226 203 184 193 194 178 178 179 164 165 172 163 167 174 175 195 202 174 154 141 126 123 127 131 150 97 68 341 73 84 67 56 48 33 28 29 36 39 36 40 49 54 48 38 42 46 35 30 32 25 17 16 5 352 344 337 333 331 332 334 335 337 337 336 334 333
290 282 281 289 283 283 290 286 292 296 283 279 267 269 281 277 281 300 286 247 166 154 183 188 193 183 167 179 185 162 162 172 167 171 179 185 198 186 149 144 134 119 120 128 151 173 142 99 24 54 67 67 64 48 33 30 27 31 36 39 42 45 49 48 40 40 39 30 32 32 23 20 21 11 4 359 348 345 346 344 342 342 341 336 332 328 326
288 277 270 274 271 274 285 293 301 296 284 285 272 264 277 276 277 297 301 304 83 135 163 173 177 170 159 171 178 163 167 175 170 178 193 195 193 161 134 130 121 121 119 99 312 203 143 121 115 90 71 65 73 57 37 29 25 26 30 31 36 39 42 43 39 38 34 28 34 33 19 15 18 10 5 4 0 2 4 356 350 347 344 340 337 333 329
295 284 271 270 265 271 279 278 279 277 281 316 312 292 318 312 313 317 302 313 91 121 138 145 159 159 153 165 169 165 176 175 166 193 207 194 180 152 136 131 134 148 128 116 257 279 111 110 117 98 79 55 59 57 45 33 17 14 27 29 28 27 29 33 31 28 27 26 30 30 17 10 11 3 359 6 8 5 1 355 351 348 345 343 341 338 336
293 285 291 292 282 275 271 252 242 283 322 338 309 281 286 350 314 303 311 86 116 139 152 147 152 156 160 171 170 170 183 171 169 208 211 175 167 160 130 129 152 171 143 134 155 113 71 66 355 76 82 63 33 33 56 49 15 2 20 34 31 20 16 22 22 14 16 23 24 21 16 11 6 0 3 11 10 3 358 355 354 352 351 351 347 344 345
288 300 317 298 281 281 320 111 121 332 331 315 311 313 318 299 214 258 310 76 139 184 214 167 152 166 175 170 163 169 176 169 180 211 204 162 157 152 139 167 181 160 140 129 119 90 68 348 330 88 90 74 329 318 71 70 29 8 8 31 41 23 8 13 15 7 8 16 17 14 13 12 6 6 13 13 6 1 358 355 354 353 351 350 348 348 349
284 298 293 282 281 276 120 120 123 358 329 308 310 306 289 268 226 218 269 245 182 225 247 144 133 154 168 162 179 180 172 176 188 199 183 157 155 157 159 191 200 144 142 152 139 129 219 263 232 106 88 52 318 309 68 61 49 26 359 19 46 27 8 9 8 5 7 10 14 11 8 9 12 13 15 11 5 4 2 357 355 352 349 347 345 346 347
284 282 271 285 308 172 158 133 119 151 253 274 292 292 287 271 197 196 241 248 216 206 149 118 123 136 142 174 207 194 179 181 180 176 162 138 143 167 166 170 161 124 122 137 133 146 236 278 299 102 94 52 320 322 57 39 42 36 353 13 43 27 12 12 6 7 9 8 12 8 3 9 16 14 12 10 8 7 2 358 355 351 349 347 345 344 344
275 278 280 295 295 194 168 145 129 142 2 348 322 304 306 311 176 185 212 253 253 179 126 121 121 127 155 214 210 187 179 175 161 158 148 127 141 178 181 146 133 110 57 34 104 126 309 312 309 99 99 79 318 324 46 30 22 31 10 13 27 22 14 10 7 11 11 11 14 6 5 15 17 11 9 8 7 3 358 356 354 351 350 348 347 345 343
275 282 282 282 284 253 162 142 120 95 60 351 320 301 294 260 182 147 89 270 256 210 162 143 123 121 230 250 212 173 163 149 139 145 146 147 165 180 183 187 189 187 181 178 202 189 174 280 281 297 74 70 303 318 43 28 5 19 21 7 9 18 13 3 6 14 12 16 15 5 10 23 17 9 9 6 3 360 355 352 351 351 351 348 346 346 342
278 285 283 272 287 320 124 135 135 133 140 158 302 287 276 184 131 122 137 260 247 239 194 141 126 158 263 270 130 140 140 135 141 150 147 155 174 184 200 212 203 180 166 165 197 200 178 206 256 265 55 42 289 319 38 27 4 13 11 359 0 6 5 359 4 13 17 22 18 9 18 27 17 10 11 8 4 359 353 352 351 350 350 347 345 346 343
251 262 272 269 282 21 114 134 144 135 125 155 280 269 165 71 80 103 151 246 240 239 164 126 150 228 226 93 110 127 129 132 143 148 145 162 190 201 201 187 161 155 161 170 185 190 181 201 230 211 116 348 296 339 42 23 11 13 356 352 358 356 355 360 4 12 20 22 19 15 20 24 16 13 13 9 7 6 1 357 353 347 346 346 344 344 343
241 243 259 277 287 87 117 137 138 123 136 231 269 322 65 62 59 55 348 257 221 222 160 134 193 239 112 111 129 136 138 147 156 164 173 186 196 163 116 107 141 204 185 150 149 23 190 200 206 141 131 319 314 356 38 20 3 11 355 348 357 352 351 2 9 15 17 12 13 18 21 19 14 15 17 10 7 11 8 1 355 352 351 351 349 347 343
250 245 251 264 267 141 137 141 128 132 200 266 216 124 104 71 85 70 317 250 210 210 169 142 128 108 112 126 142 145 156 169 163 161 180 202 185 116 113 121 179 228 354 13 354 312 235 216 190 153 142 86 351 358 22 16 360 5 355 342 356 2 0 7 10 8 5 5 14 21 18 10 6 16 19 10 9 15 12 4 0 1 4 4 359 353 347
246 246 246 259 267 154 152 145 142 182 227 13 78 156 147 119 150 158 169 200 209 215 178 147 128 122 128 137 154 164 174 179 161 159 177 187 154 156 190 162 130 136 147 346 14 171 239 250 129 100 68 35 16 357 10 12 357 352 347 349 5 8 360 360 1 356 2 23 25 20 14 2 359 15 14 3 12 21 15 9 5 4 8 11 7 1 359
228 239 235 244 122 133 153 160 168 210 189 66 43 19 120 175 196 178 174 178 178 196 193 160 142 141 142 141 162 183 181 191 185 168 171 165 142 167 185 107 108 126 179 72 67 250 258 308 11 66 101 1 24 13 11 7 350 343 354 8 10 2 352 354 360 356 6 29 23 10 7 359 355 11 11 5 18 24 19 16 12 6 6 8 8 11 13
246 277 290 148 127 139 168 218 289 299 176 117 82 19 332 267 139 78 98 145 137 162 214 186 166 170 165 144 148 176 190 205 208 147 138 147 162 188 173 114 105 136 204 143 136 246 205 184 315 293 179 13 4 10 12 359 349 351 11 22 13 358 354 356 357 356 11 27 18 359 358 357 349 0 14 13 18 23 25 22 13 8 11 10 10 13 11
261 274 255 223 206 181 183 219 264 272 274 264 176 186 258 254 129 110 98 90 107 148 227 243 195 179 176 147 144 172 219 205 165 145 169 179 182 196 195 156 132 184 194 164 162 190 187 195 251 228 177 5 317 121 69 8 0 11 19 23 9 348 348 353 350 359 24 23 3 337 345 358 353 12 32 23 13 21 32 24 10 9 14 12 12 13 8
242 252 229 206 225 226 207 213 221 210 209 228 226 212 229 252 218 137 124 114 141 151 187 236 221 170 182 171 145 154 221 233 178 185 191 181 179 196 205 193 167 204 254 226 179 179 182 199 238 224 165 104 37 83 56 359 359 27 20 12 359 345 348 347 344 5 27 9 351 347 16 14 2 27 47 29 12 23 36 25 10 6 5 7 13 10 3
242 256 255 212 198 221 238 241 234 218 202 200 209 212 206 225 272 153 125 134 197 156 166 226 254 196 179 180 148 148 180 219 222 209 185 165 176 198 195 176 213 258 290 312 324 259 198 205 227 224 176 139 94 62 38 348 13 35 13 357 351 335 322 312 330 16 4 339 339 356 10 8 357 22 56 37 14 21 26 12 10 4 350 359 13 4 353
253 256 256 242 214 204 207 213 225 242 232 198 203 219 202 195 241 223 141 142 222 194 150 165 251 250 188 164 163 173 182 199 209 201 180 174 190 203 197 187 196 224 261 301 320 317 304 282 268 232 169 151 127 73 229 80 54 30 354 336 312 299 295 290 337 44 359 331 341 1 352 349 349 351 6 346 345 348 329 348 7 12 344 338 348 343 343
249 245 239 234 236 235 208 185 199 217 216 186 206 244 216 199 213 211 159 149 211 238 155 172 208 221 193 164 180 186 183 189 192 186 183 190 198 204 204 195 196 211 225 241 261 275 285 296 308 305 216 162 138 142 225 146 90 359 334 322 297 294 290 285 46 43 354 331 343 351 338 338 343 331 298 289 300 290 282 334 354 360 357 347 330 330 339
247 253 279 243 233 238 171 133 181 186 154 156 186 244 262 233 213 206 191 180 179 183 214 230 223 187 164 182 197 195 184 185 187 180 178 189 200 200 199 202 208 213 212 217 233 242 252 272 284 286 275 241 161 147 196 195 140 344 336 338 321 317 328 16 34 19 342 328 337 337 332 334 335 330 320 297 274 265 288 329 337 333 333 333 328 334 340
270 279 321 333 279 255 206 135 165 160 157 180 179 183 258 252 215 205 212 204 190 185 206 229 234 199 177 189 194 193 189 186 182 172 173 191 205 203 203 211 216 218 217 220 231 234 235 253 262 265 273 268 192 152 172 214 173 138 332 331 329 327 330 346 0 341 316 315 317 315 319 328 329 333 335 325 293 267 292 318 319 313 309 305 300 304 311
276 287 300 303 286 264 235 214 194 163 190 229 196 172 233 245 214 207 210 199 198 206 207 209 205 196 203 207 195 186 188 188 181 175 181 196 206 211 220 220 213 213 217 219 223 223 221 234 247 252 265 271 243 177 174 188 192 188 262 318 320 314 316 326 331 325 317 310 304 305 316 329 331 334 334 332 330 321 313 311 308 302 298 293 286 283 291
252 263 273 276 272 260 240 231 219 188 189 211 215 210 241 247 215 216 214 199 195 202 204 210 203 193 201 213 200 186 189 190 184 185 194 203 202 205 219 224 220 221 221 214 213 215 213 219 234 241 248 259 265 250 198 174 174 194 227 277 285 279 283 301 316 319 312 302 298 301 311 319 321 322 324 326 328 323 317 317 316 307 301 297 287 279 287
232 229 237 250 255 254 250 252 253 219 190 190 189 201 222 221 214 226 222 209 203 198 192 198 202 194 194 203 200 190 188 189 190 194 206 215 211 206 212 219 222 225 222 215 214 213 206 209 225 240 249 250 252 256 237 191 173 189 221 249 271 272 262 257 265 281 286 285 284 287 297 307 311 316 323 323 314 305 303 308 309 306 307 311 302 285 286
239 231 228 235 243 246 243 246 254 256 241 225 211 207 209 200 189 206 219 216 212 205 196 196 196 190 186 192 199 196 189 190 199 204 209 218 219 214 215 219 222 224 222 221 224 216 204 205 218 234 253 256 243 248 252 214 171 176 210 235 260 270 256 237 231 236 249 261 270 279 290 304 313 315 311 299 288 286 291 297 300 302 307 312 307 295 290
246 241 234 233 239 246 247 243 235 229 239 250 242 223 213 202 189 195 212 217 210 205 206 204 196 191 188 187 193 203 200 194 201 207 212 218 220 220 223 226 228 230 226 222 223 217 208 210 213 213 230 246 239 240 248 220 172 171 211 229 241 263 266 238 225 234 250 264 276 286 292 295 296 292 283 276 275 280 288 294 296 294 294 296 297 293 290
239 234 231 232 231 231 235 241 235 222 223 232 232 223 216 211 200 193 203 216 214 202 205 208 202 198 194 184 186 199 205 201 202 208 214 219 221 221 223 225 228 229 222 214 218 219 212 211 212 209 219 239 239 236 235 213 175 174 214 228 234 251 260 256 253 264 276 279 276 274 272 267 262 261 263 267 275 283 284 284 282 279 282 288 294 295 295
247 236 225 224 226 224 224 228 234 237 233 223 216 217 218 218 213 200 194 205 215 205 201 204 202 200 199 192 189 194 200 204 209 212 213 217 219 217 216 219 223 227 222 216 217 214 207 207 210 206 210 235 246 241 227 203 172 172 210 228 235 236 234 237 245 251 256 262 264 265 267 266 265 266 267 269 271 272 273 276 278 281 287 292 293 293 296
251 244 230 222 220 222 225 222 223 233 238 226 214 215 221 227 229 218 197 194 206 208 205 207 205 200 200 202 201 200 200 203 210 214 215 217 219 217 217 222 231 240 244 239 223 205 195 200 206 198 200 232 248 239 204 174 162 175 213 230 237 236 229 228 232 239 247 253 255 258 262 263 263 264 265 266 268 271 275 280 285 290 294 295 296 299 302
237 237 233 226 219 220 226 228 223 224 230 229 221 219 223 224 226 226 216 203 202 205 207 208 209 205 203 203 205 208 209 210 211 213 215 218 225 230 226 225 240 255 255 253 240 210 192 193 197 194 205 232 244 235 192 161 161 183 214 230 238 236 225 216 216 225 236 239 240 245 251 255 259 262 264 267 271 275 279 284 288 292 293 293 296 298 297
237 234 230 227 223 221 224 227 227 224 225 227 223 221 225 223 219 223 224 215 204 206 211 209 207 205 202 199 199 201 206 211 210 206 206 211 219 220 203 184 199 241 248 242 240 226 203 194 194 196 213 235 241 224 193 175 173 186 211 231 239 230 213 208 211 219 225 230 236 241 243 245 249 252 255 262 268 274 279 284 285 284 283 283 283 282 281
244 237 228 224 225 226 226 226 226 225 225 226 224 221 222 223 222 225 229 224 213 211 212 214 216 214 203 194 191 193 197 201 198 196 204 210 210 204 184 168 179 212 235 235 234 230 213 196 190 191 208 228 229 205 177 171 178 193 212 226 232 229 220 217 220 221 222 227 235 240 243 247 251 254 260 269 276 278 280 280 277 274 273 273 274 273 274
242 239 231 223 222 226 228 225 223 224 225 227 227 224 222 222 221 222 227 229 227 222 217 216 219 215 200 192 193 195 196 197 196 202 215 211 192 180 176 175 184 202 221 224 224 227 224 207 193 189 204 220 221 208 183 180 193 208 218 223 229 233 234 233 232 230 232 237 242 247 251 254 255 256 259 260 262 264 265 264 263 264 266 269 273 279 287
235 236 235 229 221 222 227 226 222 222 225 227 226 223 222 222 221 220 222 227 230 230 227 225 223 214 199 198 203 202 193 186 188 202 219 216 185 171 170 177 188 203 218 222 216 211 211 214 217 223 230 229 224 223 215 201 199 208 220 226 228 231 236 238 239 240 243 247 249 252 255 255 256 259 263 264 267 274 276 274 275 279 280 281 287 295 303
233 234 234 233 227 223 223 224 223 223 224 225 224 222 221 222 220 218 218 220 222 222 220 221 226 228 220 214 214 209 195 183 183 197 209 211 199 187 182 180 185 201 219 229 221 207 202 204 209 212 214 216 220 226 225 215 207 210 220 226 228 230 233 236 240 243 249 255 260 265 271 274 277 280 284 285 287 290 292 291 292 291 288 288 293 297 298
235 234 232 231 229 226 223 221 222 223 225 226 224 221 220 222 223 219 215 215 219 221 220 219 224 229 230 226 218 203 191 187 190 198 204 203 198 196 194 189 193 210 224 224 214 202 198 198 196 192 192 199 210 219 222 218 214 215 221 228 234 237 238 241 246 252 257 263 268 271 273 276 277 277 279 283 285 286 288 291 293 294 294 297 301 302 302
233 234 233 229 225 224 223 220 218 220 223 224 224 221 216 215 217 222 222 220 218 218 219 221 222 223 228 228 213 191 188 192 191 191 195 197 191 189 191 193 202 214 221 208 188 180 183 184 184 185 192 200 205 210 215 220 220 219 218 221 228 237 243 247 252 258 262 265 268 269 271 276 280 280 282 284 285 286 289 295 301 306 309 311 311 311 312
228 229 231 228 223 219 219 220 220 218 218 220 221 218 213 209 208 213 219 222 222 220 219 220 223 226 231 230 215 193 188 190 185 183 188 192 190 190 198 203 205 209 210 197 181 177 181 187 190 194 201 207 206 205 210 218 220 217 213 215 224 233 241 247 254 262 267 269 273 277 279 279 281 284 288 294 299 302 305 307 310 313 314 313 315 318 320
226 225 222 221 221 216 214 217 219 216 214 214 212 211 211 210 208 208 210 215 223 228 225 222 224 231 233 225 208 188 181 182 185 189 191 191 191 199 211 213 208 207 207 201 192 189 193 200 202 202 209 216 212 207 212 218 217 212 211 216 224 230 240 253 263 271 274 273 272 275 277 282 290 299 304 308 310 312 314 315 314 315 316 318 321 325 326
220 222 219 217 216 212 210 212 215 215 212 208 205 206 208 207 204 205 210 215 220 224 222 216 217 225 227 215 197 185 184 188 191 191 188 188 197 208 215 217 214 211 209 205 200 198 200 202 201 202 211 220 216 206 205 206 203 203 209 221 230 237 249 258 260 262 264 265 267 274 285 297 307 309 307 308 312 317 321 321 318 317 319 321 322 323 321
213 215 218 215 209 207 208 208 208 210 209 204 201 201 202 199 198 203 212 214 211 211 213 209 202 204 211 207 193 185 192 195 191 185 182 185 197 207 211 212 208 203 200 199 197 197 199 201 202 206 212 216 215 209 199 192 193 202 215 228 236 240 245 249 251 253 258 266 278 291 301 307 309 307 310 318 322 321 318 315 314 315 317 318 318 319 320
212 211 217 215 208 205 205 205 206 209 207 200 196 195 195 197 200 205 210 211 206 202 209 213 203 192 195 201 202 203 206 199 189 190 198 203 200 200 201 197 189 185 188 192 192 191 191 196 201 205 206 205 205 207 205 202 207 216 221 224 230 234 237 245 255 268 282 295 303 307 312 320 327 327 325 322 317 314 313 315 318 320 321 322 325 329 331
216 212 214 215 213 209 205 202 203 205 201 194 189 189 191 199 207 209 207 208 203 195 196 206 205 192 189 199 213 222 221 208 192 191 201 211 204 189 186 184 181 181 183 183 180 179 185 189 193 196 197 197 200 205 205 203 205 209 212 219 228 233 237 250 272 290 304 316 329 346 350 345 337 328 321 318 317 317 320 324 328 329 329 329 332 334 335
221 215 212 212 216 219 215 209 205 204 198 192 192 193 192 198 209 212 206 206 210 206 200 202 207 204 198 199 207 216 221 217 201 184 181 183 179 172 172 176 179 180 180 179 182 191 196 196 193 190 192 194 194 192 190 191 195 202 209 214 217 224 247 285 303 306 318 351 13 7 349 339 333 327 325 326 326 325 328 334 337 336 334 334 335 335 335
226 224 218 213 213 218 220 217 214 208 197 192 196 196 192 196 208 211 204 204 216 220 210 202 205 211 209 205 203 205 209 214 213 181 166 167 167 164 166 173 179 179 177 180 187 193 194 193 189 184 181 176 172 175 186 194 194 190 183 172 172 242 296 319 347 5 11 14 10 357 345 343 341 334 328 326 327 330 336 339 337 333 331 333 333 330 327
233 233 231 224 217 215 215 216 219 214 205 202 201 191 182 184 197 208 205 204 212 218 213 204 204 210 212 211 209 207 208 213 219 200 169 161 162 163 167 173 178 178 177 179 181 182 181 181 178 171 165 163 167 177 181 170 151 138 132 136 148 179 164 155 153 0 4 10 10 10 10 360 343 332 327 328 335 340 341 338 337 338 339 339 336 331 327
234 232 232 231 226 217 211 211 214 208 204 207 205 188 175 176 189 202 204 204 210 218 220 218 214 212 211 211 213 214 212 211 213 209 183 165 164 171 177 176 174 174 176 177 176 173 172 172 169 164 160 163 170 168 151 134 125 124 140 163 165 152 146 157 180 210 115 126 107 48 25 3 342 341 353 354 352 353 353 350 350 351 350 348 346 343 340
235 232 229 230 229 221 212 212 213 206 200 204 204 190 180 185 199 203 200 203 210 218 222 225 225 223 217 211 212 218 219 213 212 214 198 171 166 174 180 176 170 170 173 174 171 167 165 164 164 162 162 164 164 157 150 141 133 137 157 163 155 145 146 155 165 168 159 148 106 50 33 3 333 347 8 7 359 357 358 357 355 354 353 350 349 346 341
237 235 232 231 229 222 214 212 211 204 198 202 206 197 190 197 209 210 201 197 201 208 217 223 227 230 228 219 214 218 222 221 222 221 200 170 164 171 175 170 166 168 170 169 166 164 164 166 166 165 162 158 156 158 160 154 145 152 166 166 156 154 172 185 189 187 176 143 109 86 41 355 340 349 7 8 360 356 358 357 354 354 352 348 345 343 342